Regional Weather Roundup
Issued by NWS Sioux Falls, SD

Home | Current Version | Previous Version | Text Only | Print | Product List | Glossary Off
Versions: 1 2 3 4 5 6 7 8 9 10 11 12 13 14 15 16 17 18 19 20 21 22 23 24 25 26 27 28 29 30 31 32 33 34 35 36 37 38 39 40 41 42 43 44 45 46 47 48 49 50

000
ASUS43 KFSD 281002
RWRFSD

WEATHER ROUNDUP FOR SE SOUTH DAKOTA/SW MINNESOTA/NW IOWA
NATIONAL WEATHER SERVICE SIOUX FALLS SD
500 AM CDT SAT MAR 28 2015

NOTE: "FAIR" INDICATES FEW OR NO CLOUDS BELOW 12,000 FEET WITH NO
SIGNIFICANT WEATHER AND OR OBSTRUCTIONS TO VISIBILITY.


SDZ038>040-050-052>070-281100-
SOUTHEAST SOUTH DAKOTA

CITY           SKY/WX    TMP DP  RH WIND       PRES   REMARKS
CHAMBERLAIN    NOT AVBL
HURON          CLOUDY    27  24  89 SE12      30.06F WCI  17
MADISON        CLOUDY    28  28 100 SE8       30.07S WCI  20
MITCHELL       PTCLDY    25  22  88 SE7       30.07R WCI  17
SIOUX FALLS    CLOUDY    30  24  78 SE10      30.09R WCI  21
WINNER         CLOUDY    35  29  78 SE5       29.98S
YANKTON        CLEAR     25  19  80 E8        30.09R WCI  16
$$

MNZ071-072-080-081-089-090-097-098-281100-
SOUTHWEST MINNESOTA

CITY           SKY/WX    TMP DP  RH WIND       PRES   REMARKS
FAIRMONT       CLOUDY    27  19  74 SE6       30.14S WCI  20
JACKSON        CLOUDY    30  28  93 SE5       30.13R WCI  25
LUVERNE        CLOUDY    30  28  93 SE8       30.11S WCI  23
MARSHALL       CLOUDY    28  23  80 SE7       30.13R WCI  21
MONTEVIDEO     CLOUDY    28  27  93 S6        30.15S WCI  22
PIPESTONE      CLOUDY    28  27  93 S9        30.07F WCI  20
REDWOOD FALLS  CLOUDY    30  26  85 E3        30.15R
TRACY          CLOUDY    29  27  94 S5        30.13R WCI  24
WINDOM         CLOUDY    28  27  93 CALM      30.13R
WORTHINGTON    CLOUDY    27  23  86 SE7       30.12R WCI  19
$$

IAZ001>003-012>014-020>022-031-032-NEZ013-014-SDZ071-281100-
NORTHWEST IOWA

CITY           SKY/WX    TMP DP  RH WIND       PRES   REMARKS
DENISON        CLOUDY    30  30 100 SE6       30.11R WCI  24
ESTHERVILLE    CLOUDY    28  25  88 SE6       30.13S WCI  22
LE MARS        CLOUDY    32  28  86 SE9       30.11R WCI  24
ORANGE CITY    CLOUDY    30  27  86 SE6       30.10S WCI  24
SHELDON        CLOUDY    30  30 100 SE9       30.10S WCI  22
SIOUX CITY     CLOUDY    33  26  75 SE10      30.10R WCI  25
SPENCER        CLOUDY    29  25  85 SE6       30.12F WCI  23
STORM LAKE     CLOUDY    28  27  93 SE7       30.12S WCI  21
$$

ABBREVIATIONS USED IN REMARKS
   TC - TEMPERATURE IN CELSIUS
  WCI - WIND CHILL INDEX
   HX - HEAT INDEX
  VSB - VISIBILITY



USA.gov is the U.S. government's official web portal to all federal, state and local government web resources and services.